Terminal Aerodrome Forecast
Issued by NWS Pocatello, ID

Home | Current Version | Previous Version | Text Only | Print | Product List | Glossary On
Versions: 1 2 3 4 5 6 7 8 9 10 11 12 13 14 15 16 17 18 19 20 21 22 23 24 25 26 27 28 29 30
000
FTUS45 KPIH 242300
TAFPIH
TAF
KPIH 242320Z 2500/2524 24011KT P6SM VCSH OVC070
      TEMPO 2502/2506 -SHRA OVC050
     FM250900 20008KT P6SM -SHRA SCT020 OVC035
     FM251800 22010G20KT P6SM -RA OVC035=

USA.gov is the U.S. government's official web portal to all federal, state and local government web resources and services.